Location: Gull Harbor
(47.1000°N, 122.9000°W)
Time: 03:42:24
(UTC-08:00)

OTV 5 (USA 277) - Visible Passes

Search period start: 22 January 2018 00:00
Search period end: 01 February 2018 00:00
Orbit: 404 x 417 km, 43.0° (Epoch: 07 September)

Date Brightness Start Highest point End Pass type
(mag) Time Alt. Az. Time Alt. Az. Time Alt. Az.
22 Jan ? 18:49:47 10° S 18:50:30 12° SSE 18:50:30 12° SSE visible
23 Jan ? 19:34:02 10° SW 19:34:47 15° SSW 19:34:47 15° SSW visible
24 Jan ? 18:43:20 10° SSW 18:45:58 21° SSE 18:46:14 21° SSE visible
25 Jan ? 17:52:52 10° SSW 17:55:04 16° SSE 17:57:16 10° ESE visible
25 Jan ? 19:28:44 10° WSW 19:30:25 24° SW 19:30:25 24° SW visible
26 Jan ? 18:37:50 10° SW 18:40:53 32° SSE 18:41:49 27° SE visible
27 Jan ? 17:47:02 10° SW 17:49:56 26° SSE 17:52:49 10° ESE visible
27 Jan ? 19:23:40 10° WSW 19:25:57 32° SW 19:25:57 32° SW visible
28 Jan ? 18:32:41 10° WSW 18:35:53 40° S 18:37:20 25° ESE visible
28 Jan ? 20:09:48 10° WSW 20:10:05 12° WSW 20:10:05 12° WSW visible
29 Jan ? 17:41:44 10° WSW 17:44:53 36° S 17:48:02 10° ESE visible
29 Jan ? 19:18:44 10° WSW 19:21:29 35° SSW 19:21:29 35° SSW visible
30 Jan ? 18:27:41 10° WSW 18:30:54 40° S 18:32:55 19° ESE visible
30 Jan ? 20:05:07 10° WSW 20:05:41 13° WSW 20:05:41 13° WSW visible
31 Jan ? 19:13:56 10° WSW 19:16:50 27° SSW 19:17:10 26° S visible
